Date,TemperatureHighF,TemperatureAvgF,TemperatureLowF,DewpointHighF,DewpointAvgF,DewpointLowF,HumidityHigh,HumidityAvg,HumidityLow,PressureMaxIn,PressureMinIn,WindSpeedMaxMPH,WindSpeedAvgMPH,GustSpeedMaxMPH,PrecipitationSumIn
2013-2-1,71.8,57.9,45.4,43.1,37.2,27.3,73,48,27,30.40,30.20,17,2,17,0.00
2013-2-2,76.8,61.3,43.6,55.6,47.1,40.1,91,62,40,30.33,30.18,13,2,13,0.00
2013-2-3,72.8,61.3,45.6,49.7,39.2,25.8,76,47,19,30.38,30.06,15,2,15,0.00
2013-2-4,75.8,64.0,58.0,61.0,56.6,49.8,91,78,55,30.06,29.82,19,3,19,0.00
2013-2-5,79.8,65.2,52.7,56.8,49.6,40.0,95,62,26,30.01,29.89,9,1,0,0.00
2013-2-6,75.8,65.9,60.3,61.9,58.9,51.7,96,79,53,30.02,29.85,15,2,15,0.05
2013-2-7,84.5,68.8,60.1,62.4,56.4,41.4,91,68,33,30.11,29.85,20,3,20,0.00
2013-2-8,70.3,60.1,50.1,46.7,36.2,23.6,69,44,18,30.26,30.11,17,4,17,0.00
2013-2-9,69.9,59.9,54.2,67.1,55.8,37.8,96,87,48,30.14,29.80,19,4,19,0.03
2013-2-10,69.9,63.5,56.5,67.6,48.0,33.4,95,61,30,30.05,29.74,21,3,21,0.07
2013-2-11,59.2,55.5,51.4,51.2,47.5,42.7,93,75,58,30.13,30.00,13,3,15,0.09
2013-2-12,71.8,59.1,51.5,56.8,47.6,25.2,97,72,22,30.10,29.84,20,3,20,0.02
2013-2-13,63.9,51.6,41.7,41.0,36.0,31.1,78,58,31,30.20,30.06,20,4,20,0.00
2013-2-14,71.7,55.0,36.8,41.4,36.7,31.2,91,56,23,30.18,30.03,15,2,15,0.00
2013-2-15,62.4,51.7,40.7,41.1,36.8,23.9,85,58,36,30.43,30.11,20,4,20,0.00
2013-2-16,66.9,51.3,34.8,31.2,28.2,23.9,73,44,24,30.50,30.25,12,2,12,0.00
2013-2-17,71.7,57.6,38.2,52.7,37.8,29.9,77,50,27,30.25,30.00,21,5,21,0.00
2013-2-18,82.9,68.9,59.6,61.4,48.6,28.4,82,55,16,30.12,29.84,20,6,20,0.00
2013-2-19,69.5,58.8,46.7,36.2,32.1,20.8,64,38,17,30.31,30.11,17,3,17,0.00
2013-2-20,63.9,58.1,54.2,62.5,48.6,35.3,96,73,43,30.16,29.69,17,4,17,0.03
2013-2-21,78.7,68.0,53.0,67.4,44.2,16.9,97,52,11,29.89,29.59,23,4,23,0.01
2013-2-22,58.7,51.3,45.1,40.9,35.3,30.4,74,55,39,30.10,29.88,16,5,16,0.00
2013-2-23,71.8,54.8,41.8,39.4,34.0,29.3,69,47,25,30.12,29.91,14,3,14,0.00
2013-2-24,74.3,58.4,39.2,58.9,47.0,35.3,89,68,45,29.97,29.63,20,4,20,0.00
2013-2-25,65.1,57.5,48.3,60.0,37.8,17.9,95,53,17,29.86,29.57,39,10,39,0.00
2013-2-26,68.2,54.2,42.0,31.9,29.9,27.1,62,42,22,30.00,29.86,19,4,19,0.00
2013-2-27,64.0,55.2,46.6,35.3,28.9,20.9,57,38,21,30.27,29.90,24,5,24,0.00
2013-2-28,62.7,50.9,42.9,30.6,27.7,22.4,59,42,23,30.39,30.23,16,3,16,0.00